(84941) = 2000 HE78 = 2003 WE142

Discovered at Socorro on 2003-11-21 by LINEAR.

Orbit

Orbit type: Main Belt

Note: WebGL enabled browser required.

epoch2024-03-31.0
epoch JD2460400.5
perihelion date2022-09-10.25610
perihelion JD2459832.75610
argument of perihelion (°)216.17651
ascending node (°)270.20949
inclination (°)6.75716
eccentricity0.1722960
perihelion distance (AU)2.2989116
Tisserand w.r.t. Jupiter3.3
ΔV w.r.t. Earth (km/sec)9.8
semimajor axis (AU)2.7774561
mean anomaly (°)120.88865
mean daily motion (°/day)0.21292810
aphelion distance (AU)3.256
period (years)4.63
P-vector [x]-0.58912204
P-vector [y]0.76624903
P-vector [z]0.25651051
Q-vector [x]-0.79943180
Q-vector [y]-0.50647239
Q-vector [z]-0.32310140
absolute magnitude15.2
phase slope0.15
uncertainty0
referenceMPEC 2024-C181
observations used1085
oppositions19
arc length (days)8968
first opposition used1998
last opposition used2023
residual rms (arc-secs)0.60
perturbers coarse indicatorM-v
perturbers precise indicator003Ek
first observation date used1998-11-20.0
last observation date used2023-06-10.0
computer nameMPCLINUX
JD of orbit computation2456819.621258
perihelion JD uncertainty (days)7.6340E-05
argument of perihelion uncertainty (°)4.5166E-05
ascending node uncertainty (°)4.2599E-05
inclination uncertainty (°)4.7404E-06
eccentricity uncertainty 5.5257E-08
perihelion distance uncertainty (AU)1.5535E-07
Minimum Orbit Intersection Distances (in AU)
for orbit epoch: 2460400.5, reference: E2024-CI1
Mercury1.97356
Venus1.58688
Earth1.31889
Mars0.68352
Jupiter1.85538
Saturn6.54722
Uranus16.0071
Neptune26.8526

Observations

1135 total observations over interval: 1998 11 20.30198 – 2023 06 10.196765
These data are available for download (format description).

Date (UT) J2000 RA J2000 Dec Magn Location Ref
1998 11 20.30198 03 52 27.58 +25 58 39.7 18.0 R 699 – Lowell Observatory-LONEOS MPS 94818
1998 11 20.32496 03 52 26.17 +25 58 32.9   699 – Lowell Observatory-LONEOS MPS 94818
1998 11 20.34795 03 52 24.86 +25 58 25.9   699 – Lowell Observatory-LONEOS MPS 94818
1998 12 11.29315 03 33 24.28 +23 55 57.1 18.8 R 699 – Lowell Observatory-LONEOS MPS 94818
1998 12 11.31606 03 33 23.16 +23 55 48.5   699 – Lowell Observatory-LONEOS MPS 94818
1998 12 11.33898 03 33 22.07 +23 55 40.8   699 – Lowell Observatory-LONEOS MPS 94818
2000 04 28.16295 13 00 44.11 -16 52 21.6 18.5   704 – Lincoln Laboratory ETS, New Mexico MPS 14651
2000 04 28.17619 13 00 43.63 -16 52 16.7 18.0   704 – Lincoln Laboratory ETS, New Mexico MPS 14651
2000 04 28.18911 13 00 43.15 -16 52 11.5 18.3   704 – Lincoln Laboratory ETS, New Mexico MPS 14651
2000 04 28.20207 13 00 42.55 -16 52 06.2 18.4   704 – Lincoln Laboratory ETS, New Mexico MPS 14651
2000 05 04.20884 12 57 07.37 -16 11 25.8 18.1 R 699 – Lowell Observatory-LONEOS MPS 14651
2000 05 04.22148 12 57 06.93 -16 11 20.9   699 – Lowell Observatory-LONEOS MPS 14651
2000 05 04.23415 12 57 06.51 -16 11 15.0   699 – Lowell Observatory-LONEOS MPS 14651
2000 05 04.24683 12 57 06.08 -16 11 09.8   699 – Lowell Observatory-LONEOS MPS 14651
2002 08 28.44177 23 55 07.00 +09 58 42.6 20.0   644 – Palomar Mountain/NEAT MPS 94818
2002 08 28.45258 23 55 06.58 +09 58 41.2 20.1   644 – Palomar Mountain/NEAT MPS 94818
2002 08 28.46366 23 55 06.14 +09 58 40.2 20.2   644 – Palomar Mountain/NEAT MPS 94818
2002 09 13.45453 23 43 21.22 +09 07 50.3 20.0   644 – Palomar Mountain/NEAT MPS 94818
2002 09 13.46503 23 43 20.71 +09 07 47.9 19.7   644 – Palomar Mountain/NEAT MPS 94818
2002 09 13.47665 23 43 20.12 +09 07 44.6 19.5   644 – Palomar Mountain/NEAT MPS 94818
2002 10 04.25151 23 26 48.61 +07 17 55.4 19.3   704 – Lincoln Laboratory ETS, New Mexico MPS 94818
2002 10 04.26716 23 26 47.95 +07 17 49.8 19.4   704 – Lincoln Laboratory ETS, New Mexico MPS 94818
2002 10 04.28296 23 26 47.25 +07 17 44.2 19.1   704 – Lincoln Laboratory ETS, New Mexico MPS 94818
2002 10 04.29862 23 26 46.56 +07 17 38.4 19.4   704 – Lincoln Laboratory ETS, New Mexico MPS 94818
2002 10 04.31437 23 26 45.80 +07 17 33.2 19.1   704 – Lincoln Laboratory ETS, New Mexico MPS 94818
2003 11 02.39138 07 48 16.89 +21 00 37.7 19.2 C 704 – Lincoln Laboratory ETS, New Mexico MPS 291051
2003 11 02.40338 07 48 17.50 +21 00 34.6 19.8 C 704 – Lincoln Laboratory ETS, New Mexico MPS 291051
2003 11 02.41530 07 48 18.14 +21 00 30.9 19.4 C 704 – Lincoln Laboratory ETS, New Mexico MPS 291051
2003 11 21.39455 07 58 57.67 +19 35 42.1 19.6   704 – Lincoln Laboratory ETS, New Mexico MPS 92135
2003 11 21.40753 07 58 57.91 +19 35 38.5 19.9   704 – Lincoln Laboratory ETS, New Mexico MPS 92135
2003 11 21.43406 07 58 58.25 +19 35 32.8 19.2   704 – Lincoln Laboratory ETS, New Mexico MPS 92135
2003 11 21.44700 07 58 58.51 +19 35 29.8 19.3   704 – Lincoln Laboratory ETS, New Mexico MPS 92135
2003 11 23.34403 07 59 28.44 +19 27 41.7 18.9   704 – Lincoln Laboratory ETS, New Mexico MPS 92135
2003 11 23.34428 07 59 28.39 +19 27 42.5 18.8   704 – Lincoln Laboratory ETS, New Mexico MPS 92135
2003 11 23.35664 07 59 28.63 +19 27 39.4 19.2   704 – Lincoln Laboratory ETS, New Mexico MPS 92135
2003 11 23.35688 07 59 28.57 +19 27 40.0 18.9   704 – Lincoln Laboratory ETS, New Mexico MPS 92135
2003 11 23.36955 07 59 28.70 +19 27 35.8 19.0   704 – Lincoln Laboratory ETS, New Mexico MPS 92135
2003 11 23.38196 07 59 28.86 +19 27 33.1 19.1   704 – Lincoln Laboratory ETS, New Mexico MPS 92135
2003 11 23.38220 07 59 28.86 +19 27 34.1 19.0   704 – Lincoln Laboratory ETS, New Mexico MPS 92135
2003 11 23.39489 07 59 29.06 +19 27 28.9 19.4   704 – Lincoln Laboratory ETS, New Mexico MPS 92135
2003 11 23.39525 07 59 29.05 +19 27 28.8 19.2   704 – Lincoln Laboratory ETS, New Mexico MPS 92135
2003 12 19.41876 07 54 41.92 +18 01 09.9 18.7   704 – Lincoln Laboratory ETS, New Mexico MPS 94818
2003 12 19.43180 07 54 41.44 +18 01 07.9 19.4   704 – Lincoln Laboratory ETS, New Mexico MPS 94818
2003 12 19.44449 07 54 41.00 +18 01 06.1 19.3   704 – Lincoln Laboratory ETS, New Mexico MPS 94818
2003 12 19.45720 07 54 40.47 +18 01 04.0 19.2   704 – Lincoln Laboratory ETS, New Mexico MPS 94818
2003 12 19.56600 07 54 36.55 +18 00 48.6 19.3   608 – Haleakala-AMOS MPS 94818
2003 12 19.57677 07 54 36.17 +18 00 46.9 19.6   608 – Haleakala-AMOS MPS 94818
2003 12 19.58740 07 54 35.76 +18 00 45.0 19.5   608 – Haleakala-AMOS MPS 94818
2003 12 21.270710 07 53 33.602 +17 56 36.50 18.24 V 645 – Apache Point-Sloan Digital Sky Survey MPS 136422
2003 12 21.274182 07 53 33.462 +17 56 35.98 18.90   645 – Apache Point-Sloan Digital Sky Survey MPS 136422
2003 12 21.33849 07 53 30.90 +17 56 27.1 18.9   704 – Lincoln Laboratory ETS, New Mexico MPS 94818
2003 12 21.35110 07 53 30.37 +17 56 25.5 19.1   704 – Lincoln Laboratory ETS, New Mexico MPS 94818
2003 12 21.36368 07 53 29.86 +17 56 23.7 18.7   704 – Lincoln Laboratory ETS, New Mexico MPS 94818
2003 12 21.37624 07 53 29.36 +17 56 22.1 18.9   704 – Lincoln Laboratory ETS, New Mexico MPS 94818
2003 12 21.38905 07 53 28.78 +17 56 20.4 18.5   704 – Lincoln Laboratory ETS, New Mexico MPS 94818
2003 12 23.32324 07 52 10.98 +17 51 49.3 18.4   704 – Lincoln Laboratory ETS, New Mexico MPS 94818
2003 12 23.33586 07 52 10.40 +17 51 47.6 18.7   704 – Lincoln Laboratory ETS, New Mexico MPS 94818
2003 12 23.34856 07 52 09.85 +17 51 46.3 18.7   704 – Lincoln Laboratory ETS, New Mexico MPS 94818
2003 12 23.36114 07 52 09.30 +17 51 44.1 18.8   704 – Lincoln Laboratory ETS, New Mexico MPS 94818
2003 12 23.37395 07 52 08.74 +17 51 42.7 18.6   704 – Lincoln Laboratory ETS, New Mexico MPS 94818
2004 01 21.23280 07 25 47.40 +17 07 01.6 17.8   704 – Lincoln Laboratory ETS, New Mexico MPS 97030
2004 01 21.24428 07 25 46.72 +17 07 00.9 17.8   704 – Lincoln Laboratory ETS, New Mexico MPS 97030
2004 01 21.25573 07 25 46.04 +17 07 00.2 18.2   704 – Lincoln Laboratory ETS, New Mexico MPS 97030
2004 01 21.26711 07 25 45.37 +17 06 59.5 18.0   704 – Lincoln Laboratory ETS, New Mexico MPS 97030
2004 01 21.27863 07 25 44.65 +17 06 59.0 18.1   704 – Lincoln Laboratory ETS, New Mexico MPS 97030
2004 01 24.30718 07 22 57.07 +17 04 06.2 18.3   704 – Lincoln Laboratory ETS, New Mexico MPS 97825
2004 01 24.33246 07 22 55.48 +17 04 05.1 18.4   704 – Lincoln Laboratory ETS, New Mexico MPS 97825
2004 01 24.34495 07 22 54.74 +17 04 04.1 18.4   704 – Lincoln Laboratory ETS, New Mexico MPS 97825
2004 01 24.35775 07 22 54.08 +17 04 02.9 18.6   704 – Lincoln Laboratory ETS, New Mexico MPS 97825
2004 01 30.21461 07 17 57.39 +16 59 05.2 18.3   704 – Lincoln Laboratory ETS, New Mexico MPS 97825
2004 01 30.22699 07 17 56.81 +16 59 04.8 18.3   704 – Lincoln Laboratory ETS, New Mexico MPS 97825
2004 01 30.23909 07 17 56.16 +16 59 04.5 18.3   704 – Lincoln Laboratory ETS, New Mexico MPS 97825
2004 01 30.25113 07 17 55.60 +16 59 03.5 18.5   704 – Lincoln Laboratory ETS, New Mexico MPS 97825
2004 01 30.26335 07 17 54.95 +16 59 03.0 18.5   704 – Lincoln Laboratory ETS, New Mexico MPS 97825
2004 03 17.17289 07 14 18.28 +16 25 56.4 20.2 V 291 – LPL/Spacewatch II MPS 101205
2004 03 17.18547 07 14 18.73 +16 25 55.8 19.5 V 291 – LPL/Spacewatch II MPS 101205
2004 03 17.20139 07 14 19.32 +16 25 54.7 19.3 V 291 – LPL/Spacewatch II MPS 101205
2004 03 18.15588 07 14 56.74 +16 24 52.0 19.3 V 291 – LPL/Spacewatch II MPS 102213
2004 03 18.16523 07 14 57.08 +16 24 51.5 19.3 V 291 – LPL/Spacewatch II MPS 102213
2004 03 18.17704 07 14 57.53 +16 24 50.6 19.4 V 291 – LPL/Spacewatch II MPS 102213
2004 03 19.17978 07 15 38.38 +16 23 42.5 19.3   704 – Lincoln Laboratory ETS, New Mexico MPS 102213
2004 03 19.19105 07 15 38.77 +16 23 41.8 19.6   704 – Lincoln Laboratory ETS, New Mexico MPS 102213
2004 03 19.20277 07 15 39.22 +16 23 41.5 19.6   704 – Lincoln Laboratory ETS, New Mexico MPS 102213
2004 03 19.21434 07 15 39.73 +16 23 39.7 19.5   704 – Lincoln Laboratory ETS, New Mexico MPS 102213
2004 03 19.22557 07 15 40.20 +16 23 38.9 19.4   704 – Lincoln Laboratory ETS, New Mexico MPS 102213
2005 05 30.59654 15 41 43.22 -24 37 41.8 18.6 R E12 – Siding Spring Survey MPS 135859
